Nederland, TX

2:01 PM CDT on August 27, 2016 (GMT -0500)
Southeast Texas Regional

Weather History for KBPT - October, 2013

Change the Weather History Date:

Friday, October 25, 2013

  Actual Average Record
Temperature  
Mean Temperature 66 °F 68 °F  
Max Temperature 75 °F 78 °F 92 °F (1927)
Min Temperature 57 °F 58 °F 40 °F (1965)
Degree Days  
Heating Degree Days 0 2  
Month to date heating degree days 9 18  
Since 1 July heating degree days 9 19  
Cooling Degree Days 1 5  
Month to date cooling degree days 183 179  
Year to date cooling degree days 2907 2765  
Growing Degree Days 16 (Base 50)    
Moisture  
Dew Point 52 °F    
Average Humidity 70    
Maximum Humidity 97    
Minimum Humidity 43    
Precipitation  
Precipitation 0.00 in 0.18 in 4.62 in (2015)
Month to date precipitation 3.99 4.57  
Year to date precipitation 47.34 49.77  
Snow  
Snow 0.00 in 0.00 in 0.00 in ()
Month to date snowfall 0.0 0.0  
Since 1 July snowfall 0.0 0.0  
Since 1 September snowfall 0.0 0.0  
Snow Depth 0.00 in    
Sea Level Pressure  
Sea Level Pressure 30.29 in    
Wind  
Wind Speed 10 mph (NE)    
Max Wind Speed 20 mph    
Max Gust Speed 26 mph    
Visibility 9 miles    
Events      
T = Trace of Precipitation, MM = Missing Value Source: NWS Daily Summary

Daily Weather History Graph

Daily Weather History Graph

Search for Another Location

Airport or City:

Trip Planner

Search our weather history database for the weather conditions in past years. The results will help you decide how hot, cold, wet, or windy it might be!

Date:

Astronomy

Oct. 25, 2013 Rise Set
Actual Time 7:24 AM CDT 6:34 PM CDT
Civil Twilight 7:00 AM CDT 6:59 PM CDT
Nautical Twilight 6:32 AM CDT 7:27 PM CDT
Astronomical Twilight 6:04 AM CDT 7:55 PM CDT
Moon No Moon Rise 12:59 PM CDT (10/25)
Length of Visible Light 11h 58m
Length of Day
11h 09m
Waning Gibbous, 62% of the Moon is Illuminated
Oct 25
Waning Gibbous
Oct 26
Last Quarter
Nov 3
New
Nov 9
First Quarter
Nov 17
Full

Hourly Weather History & Observations

Time (CDT) Temp. Dew Point Humidity Pressure Visibility Wind Dir Wind Speed Gust Speed Precip Events Conditions
12:53 AM 59.0 °F 57.0 °F 93% 30.22 in 7.0 mi Calm Calm - N/A   Clear
1:15 AM 59.0 °F 57.2 °F 94% 30.22 in 2.0 mi Calm Calm - N/A   Clear
1:23 AM 59.0 °F 57.2 °F 94% 30.22 in 5.0 mi Calm Calm - N/A   Clear
1:53 AM 60.1 °F 57.9 °F 93% 30.23 in 7.0 mi Calm Calm - N/A   Clear
2:53 AM 60.1 °F 59.0 °F 96% 30.24 in 10.0 mi NNE 5.8 mph - N/A   Clear
3:53 AM 62.1 °F 57.9 °F 86% 30.24 in 10.0 mi NE 6.9 mph - N/A   Clear
4:53 AM 62.1 °F 55.9 °F 80% 30.25 in 10.0 mi NE 12.7 mph - N/A   Clear
5:53 AM 60.1 °F 54.0 °F 80% 30.28 in 10.0 mi NE 11.5 mph - N/A   Clear
6:53 AM 57.9 °F 52.0 °F 81% 30.30 in 10.0 mi NE 9.2 mph - N/A   Clear
7:53 AM 57.9 °F 50.0 °F 75% 30.32 in 10.0 mi NE 15.0 mph 20.7 mph N/A   Clear
8:53 AM 59.0 °F 48.0 °F 67% 30.35 in 10.0 mi NE 15.0 mph 23.0 mph N/A   Clear
9:53 AM 62.1 °F 46.9 °F 58% 30.37 in 10.0 mi ENE 10.4 mph 25.3 mph N/A   Clear
10:53 AM 64.9 °F 46.9 °F 52% 30.37 in 10.0 mi NE 15.0 mph - N/A   Clear
11:53 AM 68.0 °F 46.9 °F 47% 30.36 in 10.0 mi ENE 15.0 mph - N/A   Clear
12:53 PM 72.0 °F 48.9 °F 44% 30.33 in 10.0 mi NE 11.5 mph - N/A   Clear
1:53 PM 73.0 °F 50.0 °F 44% 30.30 in 10.0 mi ENE 9.2 mph 19.6 mph N/A   Clear
2:53 PM 73.9 °F 51.1 °F 45% 30.28 in 10.0 mi NE 11.5 mph - N/A   Clear
3:53 PM 75.0 °F 51.1 °F 43% 30.28 in 10.0 mi East 10.4 mph - N/A   Clear
4:53 PM 73.9 °F 51.1 °F 45% 30.27 in 10.0 mi NE 8.1 mph - N/A   Clear
5:53 PM 72.0 °F 51.1 °F 48% 30.26 in 10.0 mi East 8.1 mph - N/A   Clear
6:53 PM 68.0 °F 52.0 °F 56% 30.27 in 10.0 mi NE 5.8 mph - N/A   Clear
7:53 PM 64.9 °F 52.0 °F 63% 30.28 in 10.0 mi NE 4.6 mph - N/A   Clear
8:53 PM 64.0 °F 51.1 °F 63% 30.30 in 10.0 mi ENE 8.1 mph - N/A   Clear
9:53 PM 63.0 °F 50.0 °F 63% 30.30 in 10.0 mi ENE 12.7 mph - N/A   Clear
10:53 PM 61.0 °F 48.0 °F 62% 30.30 in 10.0 mi ENE 9.2 mph - N/A   Clear
11:53 PM 60.1 °F 46.9 °F 62% 30.28 in 10.0 mi ENE 6.9 mph - N/A   Clear